EW6504 Weather Reports


time (UTC)temp
C
wind
direction
speed
KPH
gust
KPH
rain 1hr
cm
rain 24hr
cm
rain mn
cm
humidity
%
barometer
mb
20260507084007 6 360 12.9 27.4 0.00 0.00 0.00 80 1013.4
20260507083506 6 360 11.3 30.6 0.00 0.00 0.00 80 1013.5
20260507082506 6 360 16.1 30.6 0.00 0.00 0.00 80 1013.6
20260507082010 6 360 14.5 30.6 0.00 0.00 0.00 80 1013.6
20260507081524 6 360 14.5 32.2 0.00 0.00 0.00 80 1013.6
20260507081017 6 360 16.1 32.2 0.00 0.00 0.00 80 1013.7
20260507080511 6 360 16.1 32.2 0.00 0.00 0.00 80 1013.7
20260507080023 6 360 17.7 32.2 0.00 0.00 0.00 79 1013.8
20260507075503 6 360 17.7 29.0 0.00 0.00 0.00 79 1014.0
20260507075008 6 360 16.1 30.6 0.00 0.00 0.00 79 1014.1
20260507074004 6 360 16.1 30.6 0.00 0.00 0.00 79 1014.2
20260507073506 6 360 9.7 25.7 0.00 0.00 0.00 78 1014.4
20260507073023 6 360 14.5 25.7 0.00 0.00 0.00 78 1014.5
20260507072509 6 360 11.3 25.7 0.00 0.00 0.00 77 1014.6
20260507072006 7 360 11.3 25.7 0.00 0.00 0.00 77 1014.8
20260507071522 7 360 12.9 20.9 0.00 0.00 0.00 77 1014.7
20260507071009 7 360 6.4 19.3 0.00 0.00 0.00 77 1014.9
20260507070507 7 360 8.0 25.7 0.00 0.00 0.00 76 1014.9
20260507070025 7 360 8.0 27.4 0.00 0.00 0.00 76 1015.0
20260507065511 7 360 9.7 27.4 0.00 0.00 0.00 76 1015.0
20260507065013 7 360 9.7 29.0 0.00 0.00 0.00 75 1015.1
20260507064526 7 360 14.5 29.0 0.00 0.00 0.00 75 1015.1
20260507064007 7 360 12.9 24.1 0.00 0.00 0.00 75 1015.1
20260507063508 7 360 12.9 25.7 0.00 0.00 0.00 75 1015.2
20260507063015 7 360 9.7 25.7 0.00 0.00 0.00 74 1015.2
20260507062508 7 360 12.9 27.4 0.00 0.00 0.00 75 1015.2
20260507062007 7 360 14.5 27.4 0.00 0.00 0.00 75 1015.3
20260507061521 7 360 11.3 27.4 0.00 0.00 0.00 75 1015.3
20260507061013 7 360 12.9 27.4 0.00 0.00 0.00 75 1015.4
20260507060508 7 360 12.9 25.7 0.00 0.00 0.00 74 1015.4
20260507060034 7 360 12.9 25.7 0.00 0.00 0.00 74 1015.4
20260507055509 7 360 14.5 25.7 0.00 0.00 0.00 74 1015.5
20260507055008 7 360 14.5 25.7 0.00 0.00 0.00 74 1015.6
20260507054535 7 360 11.3 24.1 0.00 0.00 0.00 74 1015.6
20260507054008 7 360 9.7 25.7 0.00 0.00 0.00 73 1015.6
20260507053512 7 360 12.9 25.7 0.00 0.00 0.00 73 1015.6
20260507053014 7 360 12.9 24.1 0.00 0.00 0.00 73 1015.6
20260507052506 7 360 9.7 22.5 0.00 0.00 0.00 73 1015.6
20260507052004 7 360 4.8 17.7 0.00 0.00 0.00 73 1015.7
20260507051013 7 360 4.8 17.7 0.00 0.00 0.00 71 1015.7
20260507050508 7 360 4.8 14.5 0.00 0.00 0.00 70 1015.8
20260507050047 7 204 4.8 12.9 0.00 0.00 0.00 70 1015.8
20260507045511 7 211 4.8 12.9 0.00 0.00 0.00 69 1015.8
20260507045007 7 229 4.8 16.1 0.00 0.00 0.00 68 1015.9
20260507044525 7 210 4.8 16.1 0.00 0.00 0.00 67 1015.8
20260507044011 7 207 3.2 14.5 0.00 0.00 0.00 67 1016.0
20260507043507 7 214 4.8 14.5 0.00 0.00 0.00 67 1016.0
20260507043026 7 360 6.4 14.5 0.00 0.00 0.00 66 1016.0
20260507042511 7 211 6.4 16.1 0.00 0.00 0.00 66 1016.1
20260507042014 7 215 6.4 17.7 0.00 0.00 0.00 66 1016.1
20260507041004 7 224 8.0 14.5 0.00 0.00 0.00 66 1016.2
20260507040507 7 202 3.2 14.5 0.00 0.00 0.00 66 1016.3
20260507035506 7 360 4.8 14.5 0.00 0.00 0.00 66 1016.3
20260507035011 8 213 4.8 14.5 0.00 0.00 0.00 66 1016.4
20260507034534 8 215 4.8 14.5 0.00 0.00 0.00 65 1016.4
20260507034010 8 207 4.8 14.5 0.00 0.00 0.00 65 1016.5
20260507033509 8 197 6.4 14.5 0.00 0.00 0.00 64 1016.6
20260507033033 8 213 8.0 14.5 0.00 0.00 0.00 64 1016.6
20260507032504 8 209 4.8 14.5 0.00 0.00 0.00 64 1016.6
20260507032003 8 205 4.8 14.5 0.00 0.00 0.00 63 1016.6
20260507031515 8 225 8.0 16.1 0.00 0.00 0.00 63 1016.5
20260507031004 8 360 6.4 16.1 0.00 0.00 0.00 63 1016.5
20260507030508 8 217 9.7 17.7 0.00 0.00 0.00 63 1016.5
20260507030021 9 225 8.0 17.7 0.00 0.00 0.00 62 1016.6
20260507025508 9 212 6.4 14.5 0.00 0.00 0.00 62 1016.6
20260507025015 9 221 4.8 17.7 0.00 0.00 0.00 61 1016.5
20260507024527 9 213 4.8 17.7 0.00 0.00 0.00 61 1016.5
20260507024007 9 215 4.8 19.3 0.00 0.00 0.00 61 1016.6
20260507023506 10 213 6.4 19.3 0.00 0.00 0.00 60 1016.6
20260507023023 10 212 9.7 19.3 0.00 0.00 0.00 59 1016.5
20260507022511 10 223 9.7 19.3 0.00 0.00 0.00 58 1016.5
20260507022005 10 193 9.7 24.1 0.00 0.00 0.00 58 1016.4
20260507021518 10 214 14.5 29.0 0.00 0.00 0.00 57 1016.4
20260507021004 11 219 16.1 29.0 0.00 0.00 0.00 56 1016.4
20260507020504 11 360 16.1 29.0 0.00 0.00 0.00 55 1016.4
20260507020022 11 360 17.7 27.4 0.00 0.00 0.00 54 1016.4
20260507015506 11 201 14.5 29.0 0.00 0.00 0.00 52 1016.4
20260507015006 11 360 16.1 29.0 0.00 0.00 0.00 50 1016.4
20260507014524 12 225 16.1 25.7 0.00 0.00 0.00 47 1016.3
20260507014010 12 214 9.7 22.5 0.00 0.00 0.00 46 1016.3
20260507013508 12 215 9.7 22.5 0.00 0.00 0.00 45 1016.3
20260507013030 12 215 12.9 20.9 0.00 0.00 0.00 45 1016.3
20260507012512 12 205 4.8 16.1 0.00 0.00 0.00 46 1016.2
20260507012008 12 222 9.7 17.7 0.00 0.00 0.00 46 1016.1
20260507011529 12 360 9.7 17.7 0.00 0.00 0.00 46 1016.1
20260507011008 12 217 8.0 17.7 0.00 0.00 0.00 47 1016.1
20260507010506 12 216 8.0 16.1 0.00 0.00 0.00 46 1016.1
20260507010026 12 218 4.8 19.3 0.00 0.00 0.00 46 1016.2
20260507005506 12 219 8.0 20.9 0.00 0.00 0.00 45 1016.1
20260507005007 12 217 11.3 20.9 0.00 0.00 0.00 45 1016.1
20260507004520 12 213 8.0 19.3 0.00 0.00 0.00 43 1016.1
20260507004008 12 223 6.4 17.7 0.00 0.00 0.00 43 1016.1
20260507003507 12 226 9.7 20.9 0.00 0.00 0.00 42 1016.0
20260507002508 13 220 12.9 22.5 0.00 0.00 0.00 41 1016.1
20260507002010 13 205 11.3 29.0 0.00 0.00 0.00 41 1016.2
20260507001525 14 250 11.3 29.0 0.00 0.00 0.00 39 1016.2
20260507001008 14 213 11.3 27.4 0.00 0.00 0.00 37 1016.3
20260507000512 14 218 14.5 29.0 0.00 0.00 0.00 37 1016.3
20260507000032 14 221 8.0 29.0 0.00 0.00 0.00 35 1016.4
20260506235509 13 250 9.7 19.3 0.00 0.00 0.00 34 1016.5
20260506235016 13 252 6.4 17.7 0.00 0.00 0.00 34 1016.5
20260506234527 13 360 6.4 16.1 0.00 0.00 0.00 34 1016.5
20260506234010 13 231 3.2 19.3 0.00 0.00 0.00 34 1016.5
20260506233511 13 238 3.2 19.3 0.00 0.00 0.00 34 1016.6
20260506233026 13 220 9.7 19.3 0.00 0.00 0.00 34 1016.6
20260506232507 13 261 4.8 16.1 0.00 0.00 0.00 34 1016.6
20260506232010 13 232 4.8 14.5 0.00 0.00 0.00 34 1016.6
20260506231008 13 217 9.7 22.5 0.00 0.00 0.00 34 1016.6
20260506230029 14 221 16.1 22.5 0.00 0.00 0.00 33 1016.4
20260506225515 13 216 8.0 19.3 0.00 0.00 0.00 33 1016.5
20260506225007 13 234 9.7 19.3 0.00 0.00 0.00 33 1016.5
20260506224527 13 234 4.8 12.9 0.00 0.00 0.00 33 1016.5
20260506224010 13 240 4.8 12.9 0.00 0.00 0.00 32 1016.5
20260506223515 13 232 6.4 17.7 0.00 0.00 0.00 33 1016.6
20260506223027 13 238 4.8 17.7 0.00 0.00 0.00 33 1016.6
20260506222508 13 240 6.4 24.1 0.00 0.00 0.00 32 1016.6
20260506222013 14 250 8.0 24.1 0.00 0.00 0.00 31 1016.6
20260506221522 15 259 9.7 22.5 0.00 0.00 0.00 33 1016.7
20260506221008 15 243 9.7 22.5 0.00 0.00 0.00 31 1016.6
20260506220510 15 212 6.4 20.9 0.00 0.00 0.00 33 1016.7
20260506220031 14 255 4.8 14.5 0.00 0.00 0.00 32 1016.7
20260506215507 13 260 4.8 12.9 0.00 0.00 0.00 34 1016.8
20260506215012 13 281 3.2 12.9 0.00 0.00 0.00 33 1016.9
20260506214524 13 260 3.2 14.5 0.00 0.00 0.00 32 1017.0
20260506214011 13 246 3.2 16.1 0.00 0.00 0.00 32 1017.0
20260506213514 13 254 8.0 19.3 0.00 0.00 0.00 32 1017.2
20260506213031 13 248 11.3 19.3 0.00 0.00 0.00 33 1017.2
20260506212504 13 276 9.7 22.5 0.00 0.00 0.00 32 1017.1
20260506212004 13 253 1.6 22.5 0.00 0.00 0.00 32 1017.4
20260506211521 14 299 6.4 22.5 0.00 0.00 0.00 32 1017.5
20260506211005 14 269 9.7 16.1 0.00 0.00 0.00 32 1017.6
20260506210509 13 303 1.6 16.1 0.00 0.00 0.00 33 1017.6
20260506210033 13 231 3.2 17.7 0.00 0.00 0.00 33 1017.7
20260506205509 13 217 8.0 22.5 0.00 0.00 0.00 33 1017.8
20260506205011 13 360 9.7 27.4 0.00 0.00 0.00 33 1017.9
20260506204511 13 252 9.7 27.4 0.00 0.00 0.00 32 1017.9
20260506204002 13 360 11.3 20.9 0.00 0.00 0.00 33 1017.9
20260506203502 13 249 6.4 24.1 0.00 0.00 0.00 32 1017.9
20260506203022 13 224 6.4 24.1 0.00 0.00 0.00 33 1017.9
20260506202504 13 238 4.8 20.9 0.00 0.00 0.00 34 1018.0
20260506202008 12 245 3.2 16.1 0.00 0.00 0.00 34 1018.1
20260506201518 12 264 4.8 16.1 0.00 0.00 0.00 33 1018.2
20260506201005 12 266 9.7 19.3 0.00 0.00 0.00 34 1018.2
20260506200508 12 232 8.0 19.3 0.00 0.00 0.00 34 1018.2
20260506200022 12 265 6.4 20.9 0.00 0.00 0.00 33 1018.4
20260506195509 13 237 6.4 20.9 0.00 0.00 0.00 33 1018.4
20260506195010 13 287 1.6 19.3 0.00 0.00 0.00 35 1018.4
20260506194523 12 264 1.6 19.3 0.00 0.00 0.00 34 1018.4
20260506194011 12 277 4.8 19.3 0.00 0.00 0.00 34 1018.4
20260506193502 13 273 9.7 16.1 0.00 0.00 0.00 35 1018.5
20260506193015 12 281 1.6 12.9 0.00 0.00 0.00 34 1018.5
20260506192503 12 26 3.2 12.9 0.00 0.00 0.00 35 1018.5
20260506192007 12 344 0.0 14.5 0.00 0.00 0.00 35 1018.6
20260506191516 12 277 3.2 14.5 0.00 0.00 0.00 34 1018.7
20260506191007 12 252 3.2 19.3 0.00 0.00 0.00 36 1018.8
20260506190508 12 284 1.6 24.1 0.00 0.00 0.00 35 1018.8
20260506190020 12 321 6.4 24.1 0.00 0.00 0.00 34 1018.8
20260506185505 13 330 9.7 22.5 0.00 0.00 0.00 34 1018.9
20260506185006 12 300 8.0 22.5 0.00 0.00 0.00 36 1019.0
20260506184524 12 238 6.4 22.5 0.00 0.00 0.00 35 1019.0
20260506184008 12 360 11.3 17.7 0.00 0.00 0.00 36 1019.0
20260506183509 11 301 4.8 16.1 0.00 0.00 0.00 37 1018.9
20260506183026 11 265 0.0 17.7 0.00 0.00 0.00 36 1019.0
20260506182502 11 284 3.2 17.7 0.00 0.00 0.00 37 1019.1
20260506182007 11 269 6.4 17.7 0.00 0.00 0.00 38 1019.3
20260506181520 12 233 4.8 17.7 0.00 0.00 0.00 36 1019.3
20260506181006 11 309 4.8 16.1 0.00 0.00 0.00 37 1019.4
20260506180510 11 296 8.0 16.1 0.00 0.00 0.00 37 1019.4
20260506180020 11 277 6.4 16.1 0.00 0.00 0.00 35 1019.4
20260506175509 11 265 4.8 12.9 0.00 0.00 0.00 38 1019.5
20260506175008 11 330 0.0 19.3 0.00 0.00 0.00 36 1019.5
20260506174519 12 347 6.4 19.3 0.00 0.00 0.00 37 1019.5
20260506174008 11 281 3.2 17.7 0.00 0.00 0.00 37 1019.5
20260506173507 11 280 8.0 17.7 0.00 0.00 0.00 37 1019.5
20260506173024 11 263 8.0 16.1 0.00 0.00 0.00 38 1019.6
20260506172507 11 273 3.2 16.1 0.00 0.00 0.00 38 1019.7
20260506172009 11 26 1.6 16.1 0.00 0.00 0.00 37 1019.7
20260506171537 11 360 4.8 22.5 0.00 0.00 0.00 38 1019.7
20260506171003 11 249 6.4 33.8 0.00 0.00 0.00 38 1019.8
20260506170506 11 300 11.3 33.8 0.00 0.00 0.00 37 1019.8
20260506170014 11 253 6.4 33.8 0.00 0.00 0.00 37 1019.6
20260506165504 11 265 0.0 11.3 0.00 0.00 0.00 37 1019.7
20260506165007 10 265 1.6 11.3 0.00 0.00 0.00 37 1019.7
20260506164523 10 275 6.4 22.5 0.00 0.00 0.00 37 1019.8
20260506164013 11 344 6.4 22.5 0.00 0.00 0.00 37 1019.8
20260506163508 11 298 8.0 19.3 0.00 0.00 0.00 39 1019.8
20260506163022 11 311 3.2 14.5 0.00 0.00 0.00 37 1019.8
20260506162506 11 293 1.6 14.5 0.00 0.00 0.00 38 1019.8
20260506162012 11 336 3.2 14.5 0.00 0.00 0.00 38 1019.9
20260506161529 10 40 0.0 16.1 0.00 0.00 0.00 38 1019.9
20260506161010 10 265 9.7 16.1 0.00 0.00 0.00 38 1020.0
20260506160513 10 273 6.4 22.5 0.00 0.00 0.00 38 1019.9
20260506160025 10 28 9.7 22.5 0.00 0.00 0.00 39 1019.9
20260506155504 10 296 11.3 22.5 0.00 0.00 0.00 38 1020.0
20260506155007 10 317 4.8 12.9 0.00 0.00 0.00 39 1019.9
20260506154521 10 341 1.6 8.0 0.00 0.00 0.00 38 1020.0
20260506154007 10 31 1.6 11.3 0.00 0.00 0.00 39 1019.9
20260506153512 10 24 1.6 12.9 0.00 0.00 0.00 39 1020.0
20260506153022 10 277 0.0 16.1 0.00 0.00 0.00 39 1020.0
20260506152509 10 269 6.4 16.1 0.00 0.00 0.00 40 1020.0
20260506152012 10 296 6.4 14.5 0.00 0.00 0.00 41 1020.0
20260506151532 9 288 1.6 11.3 0.00 0.00 0.00 43 1020.0
20260506151013 9 269 3.2 9.7 0.00 0.00 0.00 42 1019.9
20260506150516 9 275 1.6 9.7 0.00 0.00 0.00 42 1019.8
20260506150031 9 274 1.6 11.3 0.00 0.00 0.00 42 1019.8
20260506145509 9 263 3.2 11.3 0.00 0.00 0.00 43 1019.8
20260506145005 9 275 3.2 8.0 0.00 0.00 0.00 42 1019.8
20260506144518 9 292 3.2 6.4 0.00 0.00 0.00 42 1019.7
20260506144009 8 281 1.6 9.7 0.00 0.00 0.00 45 1019.8
20260506143510 8 281 1.6 9.7 0.00 0.00 0.00 44 1019.8
20260506143036 8 269 0.0 9.7 0.00 0.00 0.00 44 1019.8
20260506142510 8 277 1.6 6.4 0.00 0.00 0.00 48 1019.7
20260506142010 8 277 0.0 4.8 0.00 0.00 0.00 48 1019.7
20260506141525 8 277 0.0 3.2 0.00 0.00 0.00 50 1019.7
20260506141008 8 277 0.0 3.2 0.00 0.00 0.00 53 1019.7
20260506140511 7 277 0.0 3.2 0.00 0.00 0.00 52 1019.6
20260506140030 7 277 0.0 4.8 0.00 0.00 0.00 52 1019.7
20260506135511 7 277 0.0 4.8 0.00 0.00 0.00 54 1019.8
20260506135009 7 277 0.0 4.8 0.00 0.00 0.00 56 1019.8
20260506134528 7 277 1.6 4.8 0.00 0.00 0.00 56 1019.8
20260506134013 6 277 0.0 4.8 0.00 0.00 0.00 58 1019.8
20260506133503 6 277 0.0 4.8 0.00 0.00 0.00 58 1019.8
20260506133020 6 278 1.6 3.2 0.00 0.00 0.00 59 1019.7
20260506132518 6 277 0.0 4.8 0.00 0.00 0.00 60 1019.6
20260506132009 6 277 1.6 4.8 0.00 0.00 0.00 61 1019.4
20260506131525 6 278 0.0 3.2 0.00 0.00 0.00 63 1019.3
20260506131010 6 277 0.0 4.8 0.00 0.00 0.00 62 1019.2
20260506130509 6 277 0.0 4.8 0.00 0.00 0.00 62 1019.2
20260506130023 6 277 1.6 4.8 0.00 0.00 0.00 62 1019.2
20260506125508 5 277 0.0 4.8 0.00 0.00 0.00 62 1019.1
20260506125011 5 277 0.0 4.8 0.00 0.00 0.00 63 1019.0
20260506124526 5 276 0.0 4.8 0.00 0.00 0.00 63 1018.9
20260506124010 5 276 0.0 4.8 0.00 0.00 0.00 63 1018.9
20260506123509 5 277 1.6 3.2 0.00 0.00 0.00 65 1018.8
20260506123028 5 277 0.0 3.2 0.00 0.00 0.00 65 1018.7
20260506122512 5 276 0.0 3.2 0.00 0.00 0.00 65 1018.6
20260506122011 5 276 0.0 3.2 0.00 0.00 0.00 65 1018.5
20260506121516 5 276 0.0 3.2 0.00 0.00 0.00 65 1018.5
20260506121010 5 276 0.0 3.2 0.00 0.00 0.00 65 1018.5
20260506120515 5 276 0.0 3.2 0.00 0.00 0.00 67 1018.4
20260506120022 5 276 0.0 1.6 0.00 0.00 0.00 66 1018.4
20260506115508 5 276 0.0 1.6 0.00 0.00 0.00 66 1018.2
20260506115013 5 276 0.0 1.6 0.00 0.00 0.00 66 1018.2
20260506114537 5 278 0.0 1.6 0.00 0.00 0.00 66 1018.1
20260506114008 5 350 0.0 1.6 0.00 0.00 0.00 65 1018.0
20260506113512 5 350 0.0 1.6 0.00 0.00 0.00 66 1018.1
20260506113026 5 360 0.0 1.6 0.00 0.00 0.00 65 1018.0
20260506112509 5 360 0.0 1.6 0.00 0.00 0.00 65 1018.0
20260506112011 5 360 0.0 1.6 0.00 0.00 0.00 65 1018.0
20260506111525 5 360 0.0 1.6 0.00 0.00 0.00 64 1018.0
20260506111006 5 360 0.0 0.0 0.00 0.00 0.00 64 1017.9
20260506110511 5 360 0.0 0.0 0.00 0.00 0.00 64 1017.9
20260506110021 5 360 0.0 1.6 0.00 0.00 0.00 64 1017.8
20260506105507 5 360 0.0 1.6 0.00 0.00 0.00 65 1017.7
20260506105010 5 360 0.0 1.6 0.00 0.00 0.00 64 1017.7
20260506104527 5 360 0.0 1.6 0.00 0.00 0.00 64 1017.7
20260506104010 5 360 0.0 1.6 0.00 0.00 0.00 65 1017.6
20260506103511 5 360 0.0 3.2 0.00 0.00 0.00 65 1017.6
20260506103025 5 360 0.0 3.2 0.00 0.00 0.00 66 1017.6
20260506102511 5 360 0.0 1.6 0.00 0.00 0.00 66 1017.6
20260506102010 5 360 0.0 3.2 0.00 0.00 0.00 66 1017.6
20260506101545 5 360 0.0 3.2 0.00 0.00 0.00 64 1017.6
20260506101015 5 360 0.0 3.2 0.00 0.00 0.00 64 1017.6
20260506100513 5 360 0.0 3.2 0.00 0.00 0.00 63 1017.5
20260506100025 5 360 0.0 3.2 0.00 0.00 0.00 62 1017.5
20260506093514 5 360 0.0 3.2 0.00 0.00 0.00 62 1017.5
20260506093024 5 360 0.0 3.2 0.00 0.00 0.00 62 1017.5
20260506092508 5 360 0.0 3.2 0.00 0.00 0.00 62 1017.4
20260506092004 5 360 0.0 3.2 0.00 0.00 0.00 62 1017.4
20260506091519 5 360 0.0 3.2 0.00 0.00 0.00 61 1017.4
20260506091007 5 360 0.0 3.2 0.00 0.00 0.00 61 1017.4
20260506090504 5 360 0.0 3.2 0.00 0.00 0.00 60 1017.3
20260506090014 5 360 0.0 1.6 0.00 0.00 0.00 60 1017.3
20260506085505 5 360 0.0 3.2 0.00 0.00 0.00 60 1017.3
20260506085009 5 360 0.0 3.2 0.00 0.00 0.00 59 1017.2
20260506084521 5 360 0.0 3.2 0.00 0.00 0.00 58 1017.2